Lid_Strength_Index
1 1 1 1 1 0 1 0 0 -0 -0 0 -0 -0 -0 -0 -0 -0 -0 0 1 1 0 0 0 -0 0 0 0 0 1 1 3 2 1 -0 -0 -0 -1 -1 -1 -1 1
1 1 1 1 1 1 1 0 -0 0 -0 -0 -0 -0 0 0 -0 0 0 0 1 1 1 0 1 0 0 -0 -0 0 0 0 1 3 2 2 1 -0 -0 -0 -0 -0 1
1 1 1 1 1 1 1 0 -0 -0 -0 -0 -0 0 0 0 0 -0 0 1 1 1 0 1 1 0 1 1 0 1 1 0 1 2 3 2 2 0 1 1 1 2 2
1 1 1 1 1 1 0 0 0 -0 0 0 -0 0 0 0 -0 -0 0 0 0 0 0 0 0 0 0 1 1 1 0 1 1 2 3 3 3 2 2 3 4 3 3
1 1 1 1 0 0 0 0 -0 -0 -0 -0 -0 0 -0 -0 0 -0 0 0 1 1 0 0 -0 0 2 1 1 1 1 2 2 3 3 3 4 4 4 4 4 3 3
1 1 1 1 1 1 0 0 0 0 0 0 0 0 0 0 8 7 4 1 1 1 1 0 0 1 2 4 4 4 1 1 2 3 3 4 4 4 4 4 4 4 5
1 1 1 1 1 1 1 1 0 0 0 0 0 0 0 0 9 8 6 1 1 1 1 1 1 1 1 0 5 5 5 6 2 1 3 3 3 3 3 3 3 3 4
1 1 1 1 1 1 1 1 0 0 0 0 0 0 0 1 8 8 6 1 1 1 1 1 1 1 1 0 1 1 0 0 -0 0 1 1 2 2 1 3 2 4 3
2 2 1 1 1 1 1 1 0 1 1 0 0 1 1 1 9 9 3 1 2 2 1 0 0 1 7 7 1 2 2 3 6 6 7 8 9 8 4 2 4 5 6
2 1 1 1 1 1 1 1 0 0 1 1 1 0 3 1 9 8 4 1 2 2 2 1 6 3 10 7 1 1 3 3 3 4 5 7 5 6 6 3 4 5 4
1 1 1 0 1 0 0 0 0 1 0 1 1 0 1 1 2 9 7 1 2 2 3 3 4 10 10 9 5 1 3 3 5 3 4 4 4 3 2 2 2 2 2
1 1 1 1 1 1 0 0 0 1 1 1 1 1 1 0 8 9 9 6 5 2 3 3 7 11 10 9 6 10 10 6 3 4 4 4 4 3 2 0 -1 -1 -2
1 1 1 1 1 0 1 1 1 1 1 2 2 2 2 1 4 11 10 9 7 2 2 9 12 12 12 10 11 10 9 3 3 4 4 3 2 1 -0 0 -2 -2 -2
1 1 1 1 1 1 1 1 1 1 2 2 2 2 2 2 2 3 3 3 7 4 7 6 7 6 7 6 5 6 1 2 2 2 2 1 0 0 0 -0 0 -0 0
1 1 1 1 1 1 1 1 1 1 1 1 1 1 2 3 2 4 3 2 1 4 3 1 1 2 2 2 2 2 0 1 1 1 1 1 1 1 0 -0 0 0 1
1 1 1 1 1 1 1 1 12 11 11 11 10 4 1 7 10 11 10 11 10 10 2 2 2 2 2 1 2 1 1 1 1 1 1 1 1 1 1 0 -0 0 1
1 1 1 2 1 1 2 2 2 4 12 12 11 11 9 9 12 12 12 11 11 9 2 2 2 2 2 2 1 1 1 1 -0 0 0 0 1 0 1 1 1 1 1
1 6 1 1 1 1 1 1 2 2 2 2 9 9 12 13 13 13 12 9 4 4 2 2 1 1 1 1 1 1 1 0 0 0 0 0 0 1 1 1 1 1 1
1 1 1 1 1 2 1 1 1 1 2 2 1 6 11 14 13 12 10 1 2 2 1 2 1 1 1 1 0 0 0 0 0 0 0 0 0 0 1 1 1 5 4
1 6 4 1 1 1 1 1 1 1 1 2 2 1 3 5 3 3 1 1 1 1 1 1 1 0 0 0 0 0 0 1 0 0 0 0 0 0 1 1 1 1 1
1 1 6 1 1 1 1 1 1 1 1 1 1 1 7 1 1 1 1 1 1 1 0 0 0 0 0 0 0 0 0 0 0 0 0 0 0 1 0 0 0 1 1
0 1 1 1 1 1 1 1 1 1 1 1 1 2 13 1 1 1 1 1 0 -0 -0 -0 0 -0 -0 -0 -0 0 0 1 0 0 0 0 0 0 0 1 1 1 1
-0 1 1 1 1 4 1 1 1 1 1 1 1 1 1 1 1 1 0 0 -0 -0 -0 -0 -0 -0 -1 -1 -1 -1 0 0 -0 -0 0 0 0 0 0 1 1 1 1
1 1 1 1 0 1 1 1 1 5 1 1 1 1 1 1 0 0 -0 -0 -0 -0 -1 -1 -1 -0 -1 -1 -1 -1 -1 -1 -1 -1 -1 -0 0 1 0 1 1 1 1
4 4 4 4 4 3 2 2 2 1 1 1 1 0 -0 -0 -1 -1 -1 -1 -0 -0 -0 -1 -1 -1 -1 -1 -1 -1 3 12 2 7 -1 -1 -0 -0 0 0 1 1 1
7 8 8 8 7 7 7 7 7 6 7 6 6 5 4 4 3 3 3 2 0 -0 -0 -1 -1 -1 -1 2 8 14 16 15 8 13 1 -0 0 0 0 0 0 1 1